Clarksburg, WV

1:32 PM EDT on July 21, 2019 (GMT -0400)
Benedum

Weather History for KCKB - May, 2019

Change the Weather History Date:

Sunday, May 26, 2019

  Actual Average Record
Temperature  
Mean Temperature 76 °F -  
Max Temperature 85 °F 75 °F 94 °F (1939)
Min Temperature 66 °F 50 °F 33 °F (1930)
Cooling Degree Days 11    
Month to date cooling degree days 111  
Year to date cooling degree days 136  
Growing Degree Days 25 (Base 50)    
Moisture  
Dew Point 66 °F    
Average Humidity 74    
Maximum Humidity 93    
Minimum Humidity 55    
Precipitation  
Precipitation 0.54 in - - ()
Month to date precipitation 3.38  
Year to date precipitation 17.51  
Sea Level Pressure  
Sea Level Pressure 30.04 in    
Wind  
Wind Speed 4 mph (SW)    
Max Wind Speed 12 mph    
Max Gust Speed 15 mph    
Visibility 8 miles    
Events Fog , Rain , Thunderstorm    
Averages and records for this station are not official NWS values.
T = Trace of Precipitation, MM = Missing Value Source: NWS Daily Summary

Daily Weather History Graph

Daily Weather History Graph

Search for Another Location

Airport or City:

Astronomy

May. 26, 2019 Rise Set
Actual Time 5:59 AM EDT 8:36 PM EDT
Civil Twilight 5:28 AM EDT 9:08 PM EDT
Nautical Twilight 4:49 AM EDT 9:47 PM EDT
Astronomical Twilight 4:05 AM EDT 10:31 PM EDT
Moon 2:09 AM EDT (5/26) 12:54 PM EDT (5/26)
Length of Visible Light 15h 40m
Length of Day
14h 37m
Waning Gibbous, 50% of the Moon is Illuminated
May 26
Waning Gibbous
May 26
Last Quarter
Jun 3
New
Jun 10
First Quarter
Jun 17
Full

Hourly Weather History & Observations

Time (EDT) Temp. Heat Index Dew Point Humidity Pressure Visibility Wind Dir Wind Speed Gust Speed Precip Events Conditions
12:53 AM 71.1 °F - 64.9 °F 81% 30.03 in 10.0 mi South 3.5 mph - N/A   Clear
1:53 AM 70.0 °F - 64.9 °F 84% 30.03 in 10.0 mi South 3.5 mph - N/A   Clear
2:53 AM 69.1 °F - 64.9 °F 87% 30.03 in 10.0 mi South 3.5 mph - N/A   Mostly Cloudy
3:53 AM 70.0 °F - 64.9 °F 84% 30.03 in 10.0 mi South 4.6 mph - N/A   Overcast
4:53 AM 69.1 °F - 64.0 °F 84% 30.03 in 10.0 mi SSE 3.5 mph - N/A   Clear
5:53 AM 66.0 °F - 63.0 °F 90% 30.02 in 7.0 mi Calm Calm - N/A   Clear
6:53 AM 69.1 °F - 63.0 °F 81% 30.04 in 10.0 mi Calm Calm - N/A   Clear
7:53 AM 72.0 °F - 64.9 °F 78% 30.05 in 10.0 mi South 4.6 mph - N/A   Scattered Clouds
8:00 AM 73.0 °F - 64.9 °F 76% 30.10 in 9.0 mi SW 6.9 mph - 0.00 in Rain , Thunderstorm Light Rain
8:05 AM 72.0 °F - 64.9 °F 78% 30.10 in 2.5 mi SW 10.4 mph - 0.06 in Rain , Thunderstorm Thunderstorms and Rain
8:26 AM 70.0 °F - 66.0 °F 87% 30.09 in 10.0 mi South 6.9 mph - 0.25 in Thunderstorm Overcast
8:43 AM 70.0 °F - 66.9 °F 90% 30.10 in 10.0 mi Calm Calm - 0.25 in   Mostly Cloudy
8:53 AM 72.0 °F - 69.1 °F 91% 30.06 in 10.0 mi South 4.6 mph - 0.25 in   Mostly Cloudy
9:14 AM 71.1 °F - 66.0 °F 84% 30.12 in 3.0 mi WSW 3.5 mph - 0.02 in Rain , Thunderstorm Thunderstorms and Rain
9:17 AM 71.1 °F - 66.0 °F 84% 30.12 in 1.8 mi NW 3.5 mph - 0.04 in Rain , Thunderstorm Thunderstorms and Rain
9:25 AM 71.1 °F - 66.9 °F 87% 30.13 in 0.5 mi West 4.6 mph - 0.12 in Fog , Rain , Thunderstorm Heavy Thunderstorms and Rain
9:31 AM 71.1 °F - 66.9 °F 87% 30.13 in 2.0 mi WSW 6.9 mph - 0.14 in Rain , Thunderstorm Light Thunderstorms and Rain
9:34 AM 71.1 °F - 66.9 °F 87% 30.13 in 3.0 mi West 4.6 mph - 0.14 in Rain , Thunderstorm Light Rain
9:46 AM 71.1 °F - 69.1 °F 93% 30.12 in 1.8 mi Calm Calm - 0.18 in Rain , Thunderstorm Rain
9:53 AM 71.1 °F - 69.1 °F 93% 30.07 in 1.5 mi Variable 4.6 mph - 0.20 in Rain , Thunderstorm Light Thunderstorms and Rain
10:12 AM 71.1 °F - 68.0 °F 90% 30.09 in 1.5 mi ESE 3.5 mph - 0.03 in Rain Light Rain
10:25 AM 73.0 °F - 71.1 °F 93% 30.09 in 9.0 mi South 5.8 mph - 0.03 in   Mostly Cloudy
10:53 AM 73.9 °F - 66.9 °F 79% 30.05 in 10.0 mi SE 3.5 mph - 0.03 in   Clear
11:53 AM 77.0 °F - 68.0 °F 74% 30.04 in 10.0 mi SW 5.8 mph - N/A   Mostly Cloudy
12:53 PM 82.0 °F 85.5 °F 69.1 °F 65% 30.02 in 10.0 mi WNW 8.1 mph - N/A   Partly Cloudy
1:00 PM 82.0 °F 85.5 °F 69.1 °F 65% 30.07 in 10.0 mi NW 6.9 mph - N/A Thunderstorm Scattered Clouds
1:53 PM 82.9 °F 85.8 °F 68.0 °F 60% 30.01 in 10.0 mi WNW 5.8 mph - N/A Thunderstorm Mostly Cloudy
2:09 PM 82.0 °F 84.5 °F 66.9 °F 60% 30.05 in 10.0 mi Variable 5.8 mph - N/A   Mostly Cloudy
2:53 PM 82.0 °F 85.9 °F 70.0 °F 67% 29.99 in 10.0 mi SSE 4.6 mph - N/A   Scattered Clouds
3:53 PM 84.0 °F 86.3 °F 66.0 °F 55% 29.97 in 10.0 mi Variable 5.8 mph - N/A   Scattered Clouds
4:53 PM 79.0 °F - 70.0 °F 74% 29.95 in 10.0 mi North 5.8 mph - N/A   Clear
5:53 PM 78.1 °F - 69.1 °F 74% 29.96 in 5.0 mi SW 4.6 mph - 0.03 in Rain Light Rain
6:53 PM 75.9 °F - 68.0 °F 76% 29.95 in 10.0 mi SW 5.8 mph - 0.00 in   Clear
7:53 PM 73.9 °F - 66.0 °F 76% 29.96 in 10.0 mi WSW 5.8 mph - 0.00 in   Scattered Clouds
8:02 PM 73.9 °F - 64.9 °F 73% 30.01 in 7.0 mi West 6.9 mph - 0.00 in Rain , Thunderstorm Light Rain
8:17 PM 71.1 °F - 64.0 °F 78% 30.01 in 4.0 mi West 6.9 mph - 0.02 in Rain Light Rain
8:53 PM 70.0 °F - 64.9 °F 84% 29.98 in 10.0 mi SSW 9.2 mph - 0.03 in Rain Light Rain
9:45 PM 70.0 °F - 64.0 °F 81% 30.05 in 10.0 mi SSW 4.6 mph - 0.00 in Rain Light Rain
9:53 PM 69.1 °F - 64.0 °F 84% 30.01 in 10.0 mi South 5.8 mph - 0.00 in   Overcast
10:53 PM 68.0 °F - 64.0 °F 87% 29.99 in 10.0 mi SE 3.5 mph - N/A   Scattered Clouds
11:43 PM 68.0 °F - 64.0 °F 87% 30.04 in 9.0 mi Calm Calm - N/A   Mostly Cloudy
11:53 PM 69.1 °F - 64.0 °F 84% 30.00 in 10.0 mi Calm Calm - N/A   Mostly Cloudy